Location: ??????
(56.0120°N, 39.1740°E)
Time: 18:21:08
(UTC+00:00)

Cosmos 1934 Rocket - Pass Details

Date: 14 April 2026
Orbit: 936 x 999 km, 83.0° (Epoch: 16 May)

Event Time Altitude Azimuth Distance (km) Brightness Sun altitude
Exits shadow 19:42:07 25° 200° (SSW) 1,884 5.1 -21.1°
Maximum altitude 19:46:02 76° 283° (WNW) 1,013 4.1 -21.3°
Drops below altitude 10° 19:52:17 10° 10° (N) 2,721 7.1 -21.7°
Sets 19:54:48 0° 12° (NNE) 3,662 7.9 -21.8°
